Regional Weather Roundup
Issued by NWS

Home | Current Version | Previous Version | Graphics & Text | Print | Product List | Glossary On
Versions: 1 2 3 4 5 6 7 8 9 10 11 12 13 14 15 16 17 18 19 20 21 22 23 24 25 26 27 28 29 30 31 32 33 34 35 36 37 38 39 40 41 42 43 44 45 46 47 48 49 50
000
ASUS43 KFSD 271310
RWRSD

WEATHER ROUNDUP FOR SOUTH DAKOTA
NATIONAL WEATHER SERVICE SIOUX FALLS SD
800 AM CDT TUE JUN 27 2017

NOTE: "FAIR" INDICATES FEW OR NO CLOUDS BELOW 12,000 FEET WITH NO
SIGNIFICANT WEATHER AND/OR OBSTRUCTIONS TO VISIBILITY.


SDZ001>005-009-010-012>017-271400-
NORTHWEST AND NORTH CENTRAL SOUTH DAKOTA

CITY           SKY/WX    TMP DP  RH WIND       PRES   REMARKS
BUFFALO          N/A     63  44  50 SE13      29.67F
FAITH            N/A     61  47  59 S26G37    29.76F
MOBRIDGE       MOSUNNY   63  44  50 S24G31    29.83F
$$

SDZ012>016-024>037-041>051-057-063-072>074-271400-
SOUTHWEST AND SOUTH CENTRAL SOUTH DAKOTA

CITY           SKY/WX    TMP DP  RH WIND       PRES   REMARKS
RAPID CTY ARPT SUNNY     65  54  67 S24G32    29.79F
PIERRE         SUNNY     60  47  61 SE14      29.89F
CUSTER         CLOUDY    58  53  84 SW6       29.93F
ELLSWORTH AFB  SUNNY     65  55  70 S21G26    29.77F
PHILIP         SUNNY     65  53  65 S14       29.84F
PINE RIDGE     MOSUNNY   64  57  78 S32G45    29.83F
SPEARFISH      FAIR      77  52  41 SW9G18    29.74F
WINNER         FAIR      64  54  69 S26G37    29.93F
$$

SDZ004>011-016>023-039-040-271400-
NORTHEAST SOUTH DAKOTA

CITY           SKY/WX    TMP DP  RH WIND       PRES   REMARKS
ABERDEEN       CLOUDY    55  44  66 S14       29.97F
WATERTOWN      SUNNY     52  44  74 S10       30.02F
BROOKINGS      SUNNY     55  43  63 S12       30.06F
SISSETON         N/A     63  45  51 S12       29.99F
$$

SDZ017-020-022-023-036>040-048>070-271400-
SOUTHEAST SOUTH DAKOTA

CITY           SKY/WX    TMP DP  RH WIND       PRES   REMARKS
SIOUX FALLS    MOSUNNY   60  46  59 S12G21    30.06F
HURON          PTSUNNY   54  44  69 S14       29.99F
CHAMBERLAIN    SUNNY     63  49  61 SE13G20   29.96F
MITCHELL       MOSUNNY   57  45  64 S10       30.02F
YANKTON        SUNNY     59  48  67 S13       30.05F
$$

ABBREVIATIONS USED IN REMARKS
   TC - TEMPERATURE IN CELSIUS
  WCI - WIND CHILL INDEX
   HX - HEAT INDEX
  VSB - VISIBILITY





USA.gov is the U.S. government's official web portal to all federal, state and local government web resources and services.